Location: Ford County Road and Bridge Department
(37.7686°N, 99.9762°W)
Time: 12:55:37
(UTC+00:00)

N. Korean satellite - Pass Details

Date: 08 April 2020
Orbit: 455 x 504 km, 97.2° (Epoch: 01 June)

Event Time Altitude Azimuth Distance (km) Brightness Sun altitude
Rises 11:38:41 0° 27° (NNE) 2,479 10.9 -7.6°
Reaches altitude 10° 11:41:05 10° 44° (NE) 1,599 10.3 -7.2°
Maximum altitude 11:43:44 21° 95° (E) 1,085 9.4 -6.7°
Drops below altitude 10° 11:46:23 10° 146° (SSE) 1,592 9.4 -6.2°
Sets 11:48:46 0° 163° (SSE) 2,464 10.2 -5.7°
